Starlink 35551

operational
NORAD ID: 66200 Int'l Des: 2025-243 Owner: SPXS Country: US Constellation: starlink
LEOCIRCULAR

Über Starlink 35551

Beschreibung wird geladen...

Live-Position

3D-Globus wird geladen...

Nächste Überflüge

Höhenverlauf

Altitude vs Time

uPlot chart will show altitude changes over time

Zweizeiliger Elementsatz

1 66200U 25243Z 25350.20737557 .00026543 00000-0 90496-3 0 9992
2 66200 53.1596 272.9183 0001036 81.9734 278.1384 15.30204682 7875
Epoch: 16. Dez. 2025 • Age: 20 hours

Aktueller Status

Höhe 485.9 km
Geschwindigkeit 7.62 km/s
Subsatellitenpunkt -33.23°S, 136.36°E
Startdatum 26. Okt. 2025
Alter 0.1 years
Typ internet

Technische Details

Klassifizierung Payload
Masse 575.00 kg
Trockenmasse 530.00 kg
Gesamtmasse 575.00 kg
Länge 0.30 m
Durchmesser 4.10 m
Spannweite 29.00 m
Form Box + pan
Hersteller SPXS
Bus-Typ Starlink V2MO
Phasenstatus In Orbit
Besitzer/Staat SPXS/US

Große Konstellationen

Loading constellations...